Slayton, MN

11:58 PM CDT on July 20, 2017 (GMT -0500)
Slayton

Weather History for KDVP - December, 2012

Change the Weather History Date:

Wednesday, December 19, 2012

  Actual Average (KOTG) Record (KOTG)
Temperature  
Mean Temperature 26 °F -  
Max Temperature 35 °F 23 °F 47 °F (1976)
Min Temperature 18 °F 9 °F -28 °F (1983)
Degree Days  
Heating Degree Days 38    
Moisture  
Dew Point 21 °F    
Average Humidity 86    
Maximum Humidity 100    
Minimum Humidity 70    
Precipitation  
Precipitation 0.00 in - - ()
Sea Level Pressure  
Sea Level Pressure 29.92 in    
Wind  
Wind Speed 5 mph (NW)    
Max Wind Speed 20 mph    
Max Gust Speed 20 mph    
Visibility 9 miles    
Events Snow    
Averages and records for this station are not official NWS values.
T = Trace of Precipitation, MM = Missing Value Source: NWS Daily Summary

Daily Weather History Graph

Daily Weather History Graph

Search for Another Location

Airport or City:

Trip Planner

Search our weather history database for the weather conditions in past years. The results will help you decide how hot, cold, wet, or windy it might be!

Date:

Astronomy

Dec. 19, 2012 Rise Set
Actual Time 7:53 AM CST 4:47 PM CST
Civil Twilight 7:20 AM CST 5:20 PM CST
Nautical Twilight 6:44 AM CST 5:56 PM CST
Astronomical Twilight 6:08 AM CST 6:32 PM CST
Moon 11:49 AM CST (12/19) No Moon Set
Length of Visible Light 9h 59m
Length of Day
8h 53m
Waxing Crescent, 45% of the Moon is Illuminated
Dec 19
Waxing Crescent
Dec 19
First Quarter
Dec 28
Full
Jan 4
Last Quarter
Jan 11
New

Hourly Weather History & Observations

Time (CST) Temp. Windchill Dew Point Humidity Pressure Visibility Wind Dir Wind Speed Gust Speed Precip Events Conditions
12:15 AM 24.6 °F 20.3 °F 24.6 °F 100% 29.82 in 4.0 mi WNW 3.5 mph - N/A   Mostly Cloudy
12:34 AM 23.2 °F 18.7 °F 23.2 °F 100% 29.83 in 7.0 mi WNW 3.5 mph - N/A   Clear
12:55 AM 23.4 °F 18.9 °F 23.2 °F 99% 29.83 in 10.0 mi SSE 3.5 mph - N/A   Clear
1:15 AM 21.4 °F 16.6 °F 21.2 °F 99% 29.84 in 10.0 mi SSE 3.5 mph - N/A   Clear
1:35 AM 22.1 °F 17.4 °F 21.2 °F 96% 29.84 in 7.0 mi SE 3.5 mph - N/A   Clear
1:55 AM 23.2 °F 17.2 °F 21.4 °F 93% 29.83 in 10.0 mi WNW 4.6 mph - N/A   Clear
2:15 AM 22.3 °F 13.9 °F 20.8 °F 94% 29.83 in 7.0 mi West 6.9 mph - N/A   Clear
2:35 AM 22.8 °F 13.6 °F 20.5 °F 91% 29.85 in 10.0 mi West 8.1 mph - N/A   Clear
2:55 AM 22.1 °F 13.7 °F 19.9 °F 91% 29.84 in 10.0 mi West 6.9 mph - N/A   Clear
3:15 AM 21.7 °F 15.5 °F 19.0 °F 89% 29.84 in 10.0 mi West 4.6 mph - N/A   Clear
3:35 AM 22.3 °F 16.1 °F 19.8 °F 90% 29.85 in 10.0 mi West 4.6 mph - N/A   Clear
3:54 AM 23.7 °F 17.8 °F 20.3 °F 87% 29.86 in 10.0 mi West 4.6 mph - N/A   Clear
4:14 AM 23.2 °F 16.0 °F 20.1 °F 88% 29.86 in 10.0 mi West 5.8 mph - N/A   Clear
4:35 AM 23.7 °F 15.6 °F 20.3 °F 87% 29.86 in 10.0 mi West 6.9 mph - N/A   Clear
4:55 AM 23.5 °F 16.4 °F 19.6 °F 85% 29.87 in 10.0 mi West 5.8 mph - N/A   Clear
5:15 AM 20.5 °F 15.6 °F 17.4 °F 88% 29.87 in 10.0 mi WSW 3.5 mph - N/A   Clear
5:35 AM 22.8 °F - 19.2 °F 86% 29.88 in 10.0 mi Calm Calm - N/A   Clear
5:55 AM 21.6 °F 15.3 °F 18.3 °F 87% 29.88 in 10.0 mi SW 4.6 mph - N/A   Clear
6:15 AM 21.9 °F 11.0 °F 18.7 °F 87% 29.89 in 10.0 mi SW 10.4 mph - N/A   Clear
6:35 AM 21.2 °F 10.9 °F 18.3 °F 89% 29.89 in 10.0 mi SW 9.2 mph - N/A   Clear
6:55 AM 20.3 °F - 17.6 °F 89% 29.89 in 10.0 mi Calm Calm - N/A   Clear
7:15 AM 20.5 °F - 18.0 °F 90% 29.89 in 10.0 mi Calm Calm - N/A   Clear
7:35 AM 19.8 °F - 17.6 °F 91% 29.89 in 10.0 mi Calm Calm - N/A   Clear
7:55 AM 19.2 °F - 16.7 °F 90% 29.88 in 10.0 mi Calm Calm - N/A   Clear
8:15 AM 18.3 °F - 15.8 °F 90% 29.89 in 10.0 mi Calm Calm - N/A   Clear
8:35 AM 18.0 °F - 15.8 °F 91% 29.90 in 10.0 mi Calm Calm - N/A   Mostly Cloudy
8:55 AM 19.6 °F - 17.1 °F 90% 29.91 in 10.0 mi Calm Calm - N/A   Scattered Clouds
9:15 AM 22.5 °F - 19.4 °F 88% 29.92 in 10.0 mi Calm Calm - N/A   Scattered Clouds
9:35 AM 24.8 °F - 21.2 °F 86% 29.93 in 10.0 mi Calm Calm - N/A   Clear
9:55 AM 25.9 °F - 22.5 °F 87% 29.94 in 10.0 mi Calm Calm - N/A   Clear
10:15 AM 30.2 °F - 24.4 °F 79% 29.94 in 10.0 mi Calm Calm - N/A   Scattered Clouds
10:35 AM 30.2 °F 26.7 °F 24.6 °F 80% 29.95 in 10.0 mi SW 3.5 mph - N/A   Clear
10:55 AM 31.3 °F - 24.8 °F 77% 29.95 in 10.0 mi Calm Calm - N/A   Clear
11:15 AM 31.6 °F - 24.6 °F 75% 29.95 in 10.0 mi Calm Calm - N/A   Clear
11:35 AM 32.2 °F - 25.7 °F 77% 29.95 in 10.0 mi Calm Calm - N/A   Scattered Clouds
11:55 AM 32.9 °F - 25.2 °F 73% 29.94 in 10.0 mi Calm Calm - N/A   Scattered Clouds
12:15 PM 33.6 °F - 26.2 °F 74% 29.93 in 10.0 mi Calm Calm - N/A   Clear
12:34 PM 33.3 °F 28.9 °F 27.9 °F 81% 29.94 in 10.0 mi South 4.6 mph - N/A   Clear
12:55 PM 33.3 °F 30.2 °F 28.0 °F 81% 29.95 in 10.0 mi SSE 3.5 mph - N/A   Mostly Cloudy
1:15 PM 33.4 °F - 28.8 °F 83% 29.94 in 10.0 mi Calm Calm - N/A   Overcast
1:55 PM 34.7 °F 30.6 °F 25.9 °F 70% 29.94 in 10.0 mi West 4.6 mph - N/A   Overcast
2:15 PM 35.1 °F 32.2 °F 26.8 °F 72% 29.94 in 10.0 mi WNW 3.5 mph - N/A   Overcast
2:35 PM 34.5 °F - 27.5 °F 76% 29.93 in 10.0 mi Calm Calm - N/A   Mostly Cloudy
2:55 PM 34.2 °F - 27.3 °F 76% 29.93 in 10.0 mi Calm Calm - N/A   Overcast
3:14 PM 33.6 °F 26.2 °F 27.7 °F 79% 29.94 in 10.0 mi NW 9.2 mph - N/A   Overcast
3:35 PM 31.8 °F 24.6 °F 25.7 °F 78% 29.93 in 10.0 mi North 8.1 mph - N/A   Overcast
3:55 PM 31.5 °F 23.5 °F 23.7 °F 73% 29.94 in 10.0 mi North 9.2 mph - N/A   Overcast
4:15 PM 30.2 °F 20.2 °F 24.4 °F 79% 29.94 in 10.0 mi North 12.7 mph - N/A   Overcast
4:35 PM 28.9 °F 19.2 °F 24.6 °F 84% 29.94 in 10.0 mi North 11.5 mph - N/A   Overcast
4:55 PM 27.9 °F 19.8 °F 23.4 °F 83% 29.94 in 10.0 mi North 8.1 mph - N/A   Overcast
5:15 PM 27.5 °F 17.4 °F 23.9 °F 86% 29.95 in 10.0 mi North 11.5 mph - N/A   Overcast
5:35 PM 27.1 °F 18.2 °F 23.7 °F 87% 29.96 in 10.0 mi North 9.2 mph - N/A   Overcast
5:55 PM 26.6 °F 17.5 °F 23.0 °F 86% 29.98 in 10.0 mi NNW 9.2 mph - N/A   Overcast
6:15 PM 26.2 °F 16.4 °F 22.5 °F 86% 29.99 in 10.0 mi NNW 10.4 mph - N/A   Overcast
6:35 PM 25.7 °F 15.7 °F 22.3 °F 87% 30.00 in 10.0 mi NNW 10.4 mph - N/A   Overcast
6:55 PM 25.3 °F 13.1 °F 19.8 °F 79% 29.99 in 10.0 mi NNW 15.0 mph - N/A   Overcast
7:14 PM 24.8 °F 12.9 °F 19.8 °F 81% 29.99 in 7.0 mi North 13.8 mph - N/A Snow Light Snow
7:35 PM 23.9 °F 12.9 °F 20.8 °F 88% 30.00 in 4.0 mi North 11.5 mph - N/A Snow Light Snow
7:55 PM 23.2 °F 9.8 °F 19.2 °F 85% 30.00 in 5.0 mi North 16.1 mph - N/A Snow Light Snow
8:15 PM 22.3 °F 9.7 °F 18.5 °F 85% 30.00 in 4.0 mi NNW 13.8 mph - N/A Snow Light Snow
8:35 PM 21.9 °F 9.8 °F 19.4 °F 90% 29.98 in 5.0 mi North 12.7 mph - N/A Snow Light Snow
8:55 PM 21.7 °F 9.6 °F 19.9 °F 93% 29.97 in 7.0 mi North 12.7 mph - N/A   Overcast
9:15 PM 21.2 °F 7.8 °F 19.8 °F 94% 29.95 in 7.0 mi North 15.0 mph - N/A   Overcast
9:35 PM 21.2 °F 6.8 °F 19.2 °F 92% 29.96 in 7.0 mi North 17.3 mph - N/A Snow Light Snow
9:55 PM 20.1 °F 4.6 °F 16.2 °F 85% 29.96 in 10.0 mi North 19.6 mph - N/A   Overcast
10:15 PM 19.2 °F 5.3 °F 15.8 °F 87% 29.97 in 10.0 mi North 15.0 mph - N/A   Overcast
10:34 PM 18.9 °F 4.3 °F 15.4 °F 87% 29.98 in 10.0 mi North 16.1 mph 19.6 mph N/A   Overcast
10:55 PM 18.7 °F 3.6 °F 15.1 °F 86% 29.98 in 7.0 mi North 17.3 mph - N/A Snow Light Snow
11:15 PM 18.5 °F 6.1 °F 15.4 °F 88% 29.98 in 5.0 mi North 11.5 mph - N/A Snow Light Snow
11:35 PM 18.5 °F 4.9 °F 15.8 °F 89% 29.97 in 2.5 mi North 13.8 mph - N/A Snow Light Snow
11:55 PM 18.3 °F 3.1 °F 16.0 °F 91% 29.97 in 2.0 mi North 17.3 mph - N/A Snow Light Snow